ROMMA est une association bénévole à but non lucratif. Votre soutien est indispensable : ADHERER à ROMMA ou FAIRE un DON

Taninges - (74, Haute-Savoie)

Vallée du Giffre (635 m)   Longitude: 06° 35' 38" E   Latitude: 46° 06' 21" N Station romma n°98
 

Détail journalier du     <<     >>

Température Precipitation Humidité Pression Vent Dir Rafale Dir. rafale Ensol.
Heure (°C) (mm) (%) (hPa) (km/h) (km/h) (min)
01:00 -3.9094102903SE0
02:00 -4.2094102903S0
03:00 -4.9094102903NE0
04:00 -4.909410291E5SO0
05:00 -6.4094102903S0
06:00 -7.6094102903S0
07:00 -8.109410301ENE6SSO0
08:00 -8.5094103003E0
09:00 -8.4094103103ENE0
10:00 -8.009410311ENE3ENE0
11:00 -6.8094103102ENE0
12:00 -4.4095103003ENE0
13:00 -2.90.293102902ENE0
14:00 -2.009010281ENE5ENE0
15:00 -1.108910272SSO6NO0
16:00 -0.408810282NNE6SSO0
17:00 -0.408910281ENE5S0
18:00 -0.609110282ENE8ESE0
19:00 -0.709310291SSE5NO0
20:00 -0.809310281SE3SE0
21:00 -0.809310282E8OSO0
22:00 -0.609410271E5ENE0
23:00 -0.609510271O6NO0
minuit -0.409610261ENE3ESE0

Graphique du 12-01-2019

 

Serveur OMMA